Location: Asheville, NC
(35.6000°N, 82.5500°W)
Time: 19:41:25
(UTC-04:00)

AO-73 - Pass Details

Date: 11 March 2018
Orbit: 582 x 665 km, 97.6° (Epoch: 23 June)

Event Time Altitude Azimuth Distance (km) Brightness Sun altitude
Rises 20:00:06 0° 137° (SE) 2,892 ? -6.1°
Reaches altitude 10° 20:02:38 10° 123° (ESE) 1,974 ? -6.6°
Maximum altitude 20:06:03 23° 71° (ENE) 1,289 ? -7.3°
Drops below altitude 10° 20:09:24 10° 18° (NNE) 1,946 ? -7.9°
Sets 20:11:52 0° 4° (N) 2,840 ? -8.4°
